Regional Weather Roundup
Issued by NWS

Home | Current Version | Previous Version | Text Only | Print | Product List | Glossary Off
Versions: 1 2 3 4 5 6 7 8 9 10 11 12 13 14 15 16 17 18 19 20 21 22 23 24 25 26 27 28 29 30 31 32 33 34 35 36 37 38 39 40 41 42 43 44 45 46 47 48 49 50

000
ASUS44 KMEG 240410
RWRTN
TENNESSEE HOURLY STATE WEATHER ROUNDUP
NATIONAL WEATHER SERVICE MEMPHIS TN
1100 PM CDT THU OCT 23 2014

TNZ002-004-019-021-049-052-054-088>092-240500-
WEST TENNESSEE

CITY           SKY/WX    TMP DP  RH WIND       PRES   REMARKS
MEMPHIS INTL   CLOUDY    56  47  71 NW3       30.14R
NWS MEMPHIS      N/A     52 N/A N/A MISG        N/A
JACKSON        CLOUDY    49  45  86 CALM      30.12F
DYERSBURG      MOCLDY    52  39  62 CALM      30.14F
UNION CITY     CLEAR     48  46  93 NE3       30.11F
PARIS          CLEAR     48  45  87 CALM      30.13S
HUNTINGDON     CLOUDY    49  45  86 CALM      30.13F
LEXINGTON      CLEAR     50  46  87 CALM      30.11F
SAVANNAH       CLEAR     54  48  82 CALM      30.12F
$$

TNZ008-025-027-028-033-062-065-066-240500-
NORTH MIDDLE TENNESSEE

CITY           SKY/WX    TMP DP  RH WIND       PRES   REMARKS
NASHVILLE      CLOUDY    54  44  69 CALM      30.13F
CLARKSVILLE    CLOUDY    50  46  86 W5        30.13S
SMYRNA         CLOUDY    51  46  83 CALM      30.14S
COOKEVILLE     CLEAR     46  45  93 CALM      30.11F
CROSSVILLE     CLOUDY    47  41  80 CALM      30.13R
$$

TNZ061-075-076-078-094-096-097-240500-
SOUTH MIDDLE TENNESSEE

CITY           SKY/WX    TMP DP  RH WIND       PRES   REMARKS
FAYETTEVILLE   CLEAR     50  43  76 N6        30.10S
TULLAHOMA      CLEAR     50  45  81 N5        30.12S
WINCHESTER     CLEAR     48  45  87 CALM      30.10F
MCMINNVILLE    CLEAR     46  46 100 CALM      30.11F
COLUMBIA         N/A     50  50 100 CALM      30.11F
SHELBYVILLE    CLEAR     50  46  87 CALM      30.13S
$$

TNZ017-018-042-046-047-240500-
NORTHEAST TENNESSEE

CITY           SKY/WX    TMP DP  RH WIND       PRES   REMARKS
TRI CITIES     MOCLDY    41  40  96 CALM      30.13F
ELIZABETHTON   CLEAR     37  37 100 CALM      30.13F
$$

TNZ012-013-036-069-073-074-240500-
CENTRAL EAST TENNESSEE

CITY           SKY/WX    TMP DP  RH WIND       PRES   REMARKS
KNOXVILLE      CLOUDY    49  42  77 NE7       30.09F
OAK RIDGE      MOCLDY    48  44  86 CALM      30.12F
GATLINBURG     CLEAR     43  39  87 CALM      30.11S
MORRISTOWN     CLEAR     46  43  87 E3        30.12F
$$

TNZ083-085-099-240500-
SOUTHEAST TENNESSEE

CITY           SKY/WX    TMP DP  RH WIND       PRES   REMARKS
CHATTANOOGA    CLOUDY    53  47  79 N6        30.09F
$$

SKY/WX REPORTED AS FAIR MEANS FEW OR NO CLOUDS BELOW
12 THOUSAND FEET.




USA.gov is the U.S. government's official web portal to all federal, state and local government web resources and services.